Skip Page Navigation
NASA JPL Caltech
NASA Logo - Jet Propulsion Laboratory + View the NASA Portal
+ Center for Near-Earth Object Studies
JPL Home Earth Solar System Stars & Galaxies Technology
JPL Solar System Dynamics
BODIES ORBITS EPHEMERIDES TOOLS PHYSICAL DATA DISCOVERY FAQ SITE MAP
JPL Small-Body Database Browser
Search: [ help ]  
295967 (2008 YF25)
Classification: Main-belt Asteroid          SPK-ID: 2295967
Ephemeris | Orbit Diagram | Orbital Elements | Mission Design | Physical Parameters | Discovery Circumstances ]

[ show orbit diagram ]
Orbital Elements at Epoch 2459000.5 (2020-May-31.0) TDB
Reference: JPL 12 (heliocentric ecliptic J2000)
 Element Value Uncertainty (1-sigma)   Units 
e .09213456194474426 4.6992e-08  
a 2.313542028099835 1.6681e-08 au
q 2.100384846800102 1.1441e-07 au
i 3.501865892094665 6.2929e-06 deg
node 286.2539178587116 9.5806e-05 deg
peri 306.1881854725063 0.0001047 deg
M 319.0325579109231 4.3922e-05 deg
tp 2459146.768519174848
(2020-Oct-24.26851917)
0.00015759 TDB
period 1285.329623178622
3.52
1.3902e-05
3.806e-08
d
yr
n .2800837960224705 3.0293e-09 deg/d
Q 2.526699209399568 1.8218e-08 au
  Orbit Determination Parameters
   # obs. used (total)      166  
   data-arc span      10174 days (27.85 yr)  
   first obs. used      1992-03-25  
   last obs. used      2020-02-01  
   planetary ephem.      DE431  
   SB-pert. ephem.      SB431-N16  
   condition code      0  
   norm. resid. RMS      .60441  
   source      ORB  
   producer      Otto Matic  
   solution date      2020-Feb-25 16:44:04  

Additional Information
 Earth MOID = 1.09142 au 
 Jupiter MOID = 2.47192 au 
 T_jup = 3.575 
[ show covariance matrix ]

Ephemeris | Orbit Diagram | Orbital Elements | Mission Design | Physical Parameters | Discovery Circumstances ]

Physical Parameter Table
Parameter Symbol Value Units Sigma Reference Notes
absolute magnitude H 17.1   n/a MPO418565  

295967 (2008 YF25)          Discovered 2008-Dec-21 by Spacewatch at Kitt Peak
Reference: 20110912/Numbers.arcLast Updated: 2011-09-14

Alternate Designations
 2008 YF25 = 2006 CB42 
Ephemeris | Orbit Diagram | Orbital Elements | Mission Design | Physical Parameters | Discovery Circumstances ]
ABOUT SSD CREDITS/AWARDS PRIVACY/COPYRIGHT GLOSSARY LINKS
FirstGov 2020-Aug-07 21:45 UT
(server date/time)  
NASA Home Page
Site Manager:   Ryan S. Park
Webmaster  Alan B. Chamberlin